Tracking 17938 objects as of 23-February-2017
HD Live streaming from Space Station
objects crossing your sky now

COSMOS 2251 DEB

Track COSMOS 2251 DEB now!
10-day predictions


NORAD ID: 34447
Int'l Code: 1993-036SQ
Perigee: 627.6 km
Apogee: 664.3 km
Inclination: 74.0 °
Period: 97.5 minutes
Semi major axis: 7016 km
RCS: 0.038 m2 (small)
Launch date: June 16, 1993
Source: Commonwealth of Independent States (former USSR) (CIS)
Launch site: PLESETSK MISSILE AND SPACE COMPLEX (PKMTR)

Note: This is SATELLITE DEBRIS
Your satellite tracking list
Your tracking list is empty





NASA's NSSDC Master Catalog

Two Line Element Set (TLE):
1 34447U 93036SQ  17052.90767682  .00005072  00000-0  71889-3 0  9993
2 34447  74.0268 222.5255 0026129  73.8646  76.1570 14.77054957424777
Source of the keplerian elements: AFSPC